www.pogodaiklimat.ru

Погода и климат >> Архив погоды >> Россия >> Ленинградская область >> Выборг


АРХИВ ПОГОДЫ в Выборге

Время (UTC), дата Ветер
(напр.,м/с)
 
Видим.   Явления Облачность Т
(С)
Тd
(С)
f
(%)
Тe
(С)
Тes
(С)
Комфортность P
(гПа)
Po
(гПа)
Тmin
(С)
Tmax
(С)
R
(мм)
R24
(мм)
S
(см)
09 9.09 В 2 20 км {ливн. осадки} 10/8 900 м
[Cb cap Ac As]
+14.8 +13.4 91 +14 +15 тепло 1024.5 1022.9
12 9.09 В 3 20 км {ливн. осадки} 9/8 270 м
[Cb cap Ac trans]
+16.1 +14.0 87 +16 +16 тепло 1023.6 1022.1
15 9.09 СВ 2 20 км 9/8 360 м
[Cb cap Ac trans]
+17.4 +14.8 85 +18 +18 тепло 1023.0 1021.5 1
18 9.09 В 2 10 км 8/0
[Ac trans Ci fib]
+16.2 +14.3 89 +16 +16 тепло 1023.4 1021.9 +17.7 1
21 9.09 СВ 1 20 км ясно +14.0 +13.1 94 +14 +14 тепло 1023.8 1022.2
00 10.09 СВ 2 2000 м дымка 8/0 <50 м
[Ac trans]
+13.1 +12.4 96 +12 +12 тепло 1022.1
03 10.09 СВ 1 10 км 8/0
[Ac trans Ci fib]
+13.4 +12.9 97 +13 +13 тепло 1022.9 1021.3 +12.9
06 10.09 В 1 20 км 4/0
[Ci fib]
+16.2 +14.1 87 +17 +19 тепло 1023.2 1021.7 +12.9
09 10.09 З 1 20 км 3/0
[Ci fib]
+21.3 +16.4 74 +25 +31 комфорт 1023.4 1021.9
12 10.09 Ю 3 20 км 4/1 600 м
[Cu hum Ci fib]
+25.0 +17.0 61 +29 +32 душно 1022.6 1021.1
15 10.09 Ю 5 20 км 8/0
[Ac lent Cs]
+22.9 +16.0 65 +27 +27 душно 1022.2 1020.7
18 10.09 ЮВ 5 20 км 8/0
[As trans]
+21.1 +15.6 71 +24 +24 комфорт 1022.2 1020.7 +25.2
21 10.09 ЮВ 3 20 км 6/0
[As trans]
+19.1 +15.6 80 +21 +21 комфорт 1022.2 1020.7
00 11.09 Ю 4 10 км 6/0
[As trans]
+17.8 +15.4 86 +18 +18 тепло 1021.7 1020.2
03 11.09 ЮВ 4 20 км 10/4 600 м
[Cb cap As op]
+16.9 +14.7 87 +16 +16 тепло 1020.3 1018.8 +16.8
06 11.09 Ю 3 20 км 10/5 600 м
[Cb cap As trans]
+17.2 +14.8 86 +17 +17 тепло 1019.7 1018.2 +16.8
09 11.09 Ю 6 20 км 6/4 600 м
[Cu med, cong Ac trans Ci fib]
+19.2 +14.2 73 +20 +21 тепло 1019.3 1017.8
12 11.09 ЮЗ 10-12
{14}
20 км 8/5 600 м
[Cu med, cong Ac trans Ci fib]
+20.3 +10.6 54 +21 +21 комфорт 1018.5 1017.0
15 11.09 Ю 7
{15}
10 км слаб. ливневой дождь 10/8 600 м
[Cb cap Ac As]
+16.4 +13.0 80 +15 +15 тепло 1018.0 1016.5 0.6
18 11.09 Ю 8
{13}
10 км в посл. час ливневой дождь 10/8 800 м
[Cb cap Ac As]
+16.6 +13.4 81 +15 +15 тепло 1016.9 1015.4 +20.4 3
21 11.09 ЮЗ 12-14
{17}
10 км в посл. час ливневой дождь 10/8 480 м
[Cb cap As op]
+16.8 +14.2 85 +15 +15 тепло 1016.2 1014.7
00 12.09 ЮЗ 10-11
{17}
10 км {ливн. осадки} 10/8 480 м
[Cb cap As op]
+16.5 +14.6 89 +15 +15 тепло 1016.0 1014.5
03 12.09 ЮЗ 9-10
{15}
20 км 10/8 750 м
[Cb cap As op]
+16.1 +13.1 82 +14 +14 тепло 1016.4 1014.9 +15.5 5
06 12.09 ЮЗ 10-11
{15}
20 км 9/8 660 м
[Cb cap Ac trans Ci fib]
+16.2 +13.0 81 +14 +14 тепло 1016.3 1014.8 +15.5 2
09 12.09 ЮЗ 12-16
{16}
20 км 3/1 600 м
[Cu med, cong Ac trans]
+17.7 +12.5 72 +16 +16 тепло 1015.4 1013.9
12 12.09 ЮЗ 8-12
{16}
10 км слаб. ливневой дождь 10/9 1000 м
[Cb cap Ac und]
+16.4 +12.2 76 +15 +15 тепло 1014.3 1012.8
15 12.09 ЮЗ 12-16
{17}
20 км в посл. час ливневой дождь 10/9 800 м
[Cb cap Ac trans]
+16.5 +13.1 80 +14 +14 тепло 1012.8 1011.3 2
18 12.09 З 7
{16}
10 км {ливн. осадки} 1/0
[Ac trans]
+15.1 +11.0 76 +13 +13 тепло 1012.5 1011.0 +18.1 2
21 12.09 З 5
{11}
20 км ясно +14.0 +10.6 80 +12 +12 тепло 1012.0 1010.5
00 13.09 З 4 20 км 9/3 600 м
[Cu med, cong Ci fib]
+13.9 +11.9 88 +12 +12 тепло 1011.4 1009.9
03 13.09 З 6
{10}
20 км 9/8 600 м
[Cu med, cong Cc]
+15.4 +12.9 85 +14 +14 тепло 1009.8 1008.3 +13.9
06 13.09 З 7-10
{12}
20 км 9/6 600 м
[Cu med, cong Ac trans]
+15.8 +11.4 75 +14 +14 тепло 1008.8 1007.3 +13.9
09 13.09 ЮЗ 8-11
{12}
10 км слаб. ливневой дождь 10/8 800 м
[Cb cap Ac As]
+14.1 +12.1 88 +12 +12 по сезону 1007.9 1006.4
12 13.09 З 2
{11}
10 км слаб. ливневой дождь 10/8 720 м
[Cb cap Ac As]
+12.6 +11.3 92 +12 +12 по сезону 1007.3 1005.8
15 13.09 З 1 20 км {ливн. осадки} 9/8 1200 м
[Cb cap Ac As]
+13.7 +12.0 89 +14 +14 тепло 1006.7 1005.2 8
18 13.09 СЗ 2 20 км {ливн. осадки} 8/0
[Ac trans Ci fib]
+12.2 +11.1 93 +11 +11 по сезону 1007.0 1005.5 +16.7 8
21 13.09 СЗ 3 20 км ясно +9.8 +8.6 92 +7 +7 по сезону 1008.1 1006.5
00 14.09 З 3 20 км ясно +8.4 +6.7 89 +6 +6 по сезону 1008.9 1007.3
03 14.09 З 3 20 км ясно +7.9 +6.4 90 +5 +5 прохладно 1010.1 1008.5 +7.9
06 14.09 З 4 20 км ясно +9.3 +7.2 87 +6 +7 по сезону 1010.8 1009.2 +7.7
09 14.09 З 4
{10}
20 км 6/6 600 м
[Cu med, cong]
+12.6 +5.6 62 +11 +12 по сезону 1011.7 1010.2
12 14.09 СЗ 4
{11}
20 км 8/8 600 м
[Cu med, cong]
+13.7 +3.8 51 +12 +13 по сезону 1012.2 1010.7
15 14.09 СЗ 4
{13}
20 км 6/6 600 м
[Cu hum]
+13.5 +3.3 50 +12 +12 по сезону 1012.5 1010.9
18 14.09 З 2 10 км ясно +9.5 +4.8 72 +8 +8 по сезону 1013.2 1011.6 +14.9
21 14.09 СЗ 3 20 км ясно +7.6 +5.4 86 +5 +5 прохладно 1013.5 1011.9
00 15.09 З 2 20 км ясно +6.5 +5.1 91 +4 +4 прохладно 1012.6 1010.9
03 15.09 З 2 20 км ясно +7.6 +5.4 86 +6 +6 по сезону 1010.7 1009.1 +5.5
06 15.09 ЮВ 6 20 км 10/8 600 м
[Cb cap As op]
+8.9 +6.8 87 +5 +5 прохладно 1006.0 1004.3 +5.5
09 15.09 Ю 11-12
{15}
4000 м ливневой дождь 10/9 300 м
[Cb cap As op]
+9.7 +8.5 92 +5 +5 прохладно 1000.0 998.4
12 15.09 Ю 10-11
{14}
4000 м ливневой дождь 10/9 330 м
[Cb cap As op]
+11.0 +9.8 92 +7 +7 холодно 993.2 991.7
15 15.09 ЮЗ 12-13
{19}
4000 м ливневой дождь 10/9 270 м
[Cb cap As op]
+13.2 +12.1 93 +10 +10 по сезону 986.1 984.6 29
18 15.09 З 6
{16}
10 км {ливн. осадки} 3/0
[Ac trans]
+9.6 +7.9 89 +6 +6 прохладно 986.6 985.1 +13.3 30
21 15.09 З 6
{11}
20 км 3/0
[Ac trans Ci fib]
+9.4 +7.3 87 +6 +6 по сезону 987.0 985.5
00 16.09 З 6
{10}
20 км 3/0
[Ac trans]
+8.7 +7.0 89 +5 +5 по сезону 986.7 985.2
03 16.09 З 6
{11}
20 км 3/0
[Ac trans]
+8.0 +6.3 89 +4 +4 прохладно 986.2 984.7 +7.9 1
06 16.09 З 6
{10}
20 км 8/4 600 м
[Cu med, cong Ac trans Ci fib]
+8.2 +6.0 86 +4 +4 прохладно 985.8 984.3 +7.7

 

Местоположение метеостанции Выборг (Ленинградская область, Россия): широта 60.72 долгота 28.73 высота над уровнем моря 13 м.

В архиве по умолчанию представлена погода в Выборге за последнюю неделю. Архивные данные за месяц целиком и за предыдущие месяцы, начиная с января 2011 года, Вы можете получить, выбрав интересующий диапазон дат из раскрывающегося списка и нажав кнопку "Ввод!".


*Определитесь, кто Вы:
робот инопланетянин человек

Внимание! Время в таблицах - всемирное. Для получения местного времени необходимо прибавить поправку, которая равна 3 ч.

Смотрите также архив погоды в соседних городах и на ближайших метеорологических станциях:

Погода в Лесогорском (Ленинградская область, Россия) (36 км)
Погода в Лаппеенранте (Финляндия) (47 км)
Погода в Лаппеенранта аэропорту (Финляндия) (47 км)
Погода в Хиеккапакке (Финляндия) (55 км)
Погода в Озерках (Ленинградская область, Россия) (60 км)
Погода в Коивуниеми (Финляндия) (62 км)
Погода в Рощино (Ленинградская область, Россия) (72 км)
Погода в Сосново (Ленинградская область, Россия) (89 км)
Погода в Париккала Коицанлахти (Финляндия) (89 км)
Погода в Пуумале (Финляндия) (94 км)

Пояснения к столбцам:

Ветер - указаны скорость ветра в м/с - средняя за 10 мин, порывы в срок и между сроками (в фигурных скобках) и направление, откуда дует ветер: С - северный, СВ - северо-восточный, В - восточный, ЮВ - юго-восточный, Ю - южный, ЮЗ - юго-западный, З - западный, СЗ - северо-западный.
Видимость - горизонтальная дальность видимости в метрах или километрах. При видимости от 1 до 10 км при отсутствии осадков обычно наблюдается дымка, при ухудшении видимости до 1 км и менее - туман. В сухую погоду видимость может ухудшаться дымом, пылью или мглою.
Явления - указаны атмосферные явления, наблюдавшиеся в срок или в последний час перед сроком; фигурными скобками обозначены явления, наблюдавшиеся между сроками (за 1-3 часа до срока); квадратными скобками обозначены град или гололедные отложения с указанием их диаметра в мм.
Облачность - указаны через наклонную черту общая и нижняя облачность в баллах и высота нижней границы облаков в метрах; квадратными скобками обозначены формы облаков: Ci - перистые, Cs - перисто-слоистые, Cc - перисто-кучевые, Ac - высококучевые, As - высокослоистые, Sc - слоисто-кучевые, Ns - слоисто-дождевые, Cu - кучевые, Cb - кучево-дождевые. Подробнее классификацию облаков см. в Атласе облаков (PDF).
T - Температура воздуха - температура, измеренная на высоте 2 м над землей.
Td - Температура точки росы - температура, при понижении до которой содержащийся в воздухе водяной пар достигнет насыщения.
f - Относительная влажность воздуха - влажноcть воздуха, измеренная на высоте 2 м над землей.
Te - Эффективная температура - температура, которую ощущает одетый по сезону человек в тени. Характеристика душности погоды. При расчете учитывается влияние влажности воздуха и скорости ветра на теплоощущения человека.
Tes - Эффективная температура на солнце - температура, которую ощущает человек, с поправкой на солнечный нагрев. Характеристика знойности погоды. Зависит от высоты солнца над горизонтом, облачности и скорости ветра. Ночью, в пасмурную погоду, а также при ветре 12 м/с и более поправка равна нулю.
P - Атмосферное давление - приведенное к уровню моря атмосферное давление.
Po - Атмосферное давление - измеренное на уровне метеостанции атмосферное давление.
Tmin - Минимальная температура - минимум температуры воздуха на высоте 2 м над землей.
Tmax - Максимальная температура - максимум температуры воздуха на высоте 2 м над землей.
R - Количество осадков - Количество выпавших осадков за период времени, мм. При наведении курсора мыши на число - период времени, за который выпало указанное количество осадков.
R24 - Количество осадков - Количество выпавших осадков за 24 часа, мм.
S - Снежный покров - Высота снежного покрова, см. При наведении курсора мыши на число - состояние снежного покрова и степень покрытия местности в баллах.